Oceana NAS, VA

9:56 AM EDT on July 24, 2017 (GMT -0400)
Oceana Naval Air Station

Weather History for KNTU - February, 2013

Change the Weather History Date:

Thursday, February 21, 2013

  Actual Average Record
Temperature  
Mean Temperature 34 °F -  
Max Temperature 42 °F 50 °F 77 °F (2014)
Min Temperature 27 °F 33 °F 9 °F (2015)
Degree Days  
Heating Degree Days 30    
Moisture  
Dew Point 19 °F    
Average Humidity 52    
Maximum Humidity 66    
Minimum Humidity 38    
Precipitation  
Precipitation 0.00 in - - ()
Sea Level Pressure  
Sea Level Pressure 30.19 in    
Wind  
Wind Speed 10 mph (NNW)    
Max Wind Speed 14 mph    
Max Gust Speed 18 mph    
Visibility 10 miles    
Events      
Averages and records for this station are not official NWS values.
T = Trace of Precipitation, MM = Missing Value Source: NWS Daily Summary

Daily Weather History Graph

Daily Weather History Graph

Search for Another Location

Airport or City:

Trip Planner

Search our weather history database for the weather conditions in past years. The results will help you decide how hot, cold, wet, or windy it might be!

Date:

Astronomy

Feb. 21, 2013 Rise Set
Actual Time 6:45 AM EST 5:50 PM EST
Civil Twilight 6:18 AM EST 6:17 PM EST
Nautical Twilight 5:48 AM EST 6:47 PM EST
Astronomical Twilight 5:18 AM EST 7:17 PM EST
Moon 2:07 PM EST (2/21) 3:43 AM EST (2/21)
Length of Visible Light 11h 58m
Length of Day
11h 05m
Waxing Gibbous, 83% of the Moon is Illuminated
Feb 21
Waxing Gibbous
Feb 25
Full
Mar 4
Last Quarter
Mar 11
New
Mar 19
First Quarter

Hourly Weather History & Observations

Time (EST) Temp. Windchill Dew Point Humidity Pressure Visibility Wind Dir Wind Speed Gust Speed Precip Events Conditions
12:56 AM 34.0 °F 24.6 °F 19.9 °F 56% 30.13 in 10.0 mi NNE 13.8 mph - N/A   Mostly Cloudy
1:56 AM 33.1 °F 25.5 °F 19.0 °F 56% 30.13 in 10.0 mi North 9.2 mph - N/A   Mostly Cloudy
2:56 AM 32.0 °F 23.0 °F 17.1 °F 54% 30.13 in 10.0 mi North 11.5 mph - N/A   Scattered Clouds
3:56 AM 30.0 °F 23.2 °F 18.0 °F 61% 30.13 in 10.0 mi North 6.9 mph - N/A   Scattered Clouds
4:56 AM 28.0 °F 21.7 °F 17.1 °F 63% 30.16 in 10.0 mi NNW 5.8 mph - N/A   Clear
5:56 AM 27.0 °F 21.6 °F 17.1 °F 66% 30.17 in 10.0 mi NNW 4.6 mph - N/A   Partly Cloudy
6:56 AM 27.0 °F - 17.1 °F 66% 30.19 in 10.0 mi Calm Calm - N/A   Scattered Clouds
7:56 AM 30.9 °F 25.2 °F 19.9 °F 64% 30.21 in 10.0 mi NW 5.8 mph - N/A   Partly Cloudy
8:56 AM 33.1 °F 23.9 °F 17.1 °F 52% 30.22 in 10.0 mi NW 12.7 mph - N/A   Partly Cloudy
9:56 AM 34.0 °F 25.5 °F 16.0 °F 48% 30.22 in 10.0 mi NW 11.5 mph - N/A   Scattered Clouds
10:56 AM 35.1 °F 26.9 °F 17.1 °F 48% 30.20 in 10.0 mi NNW 11.5 mph - N/A   Partly Cloudy
11:56 AM 36.0 °F 28.0 °F 17.1 °F 46% 30.20 in 10.0 mi NNW 11.5 mph - N/A   Partly Cloudy
12:56 PM 39.0 °F 31.8 °F 19.0 °F 45% 30.17 in 10.0 mi North 11.5 mph 17.3 mph N/A   Partly Cloudy
1:56 PM 39.9 °F 33.4 °F 19.0 °F 43% 30.15 in 10.0 mi NNW 10.4 mph 17.3 mph N/A   Clear
2:56 PM 42.1 °F 35.2 °F 19.0 °F 40% 30.14 in 10.0 mi NNW 12.7 mph - N/A   Clear
3:56 PM 42.1 °F 35.7 °F 18.0 °F 38% 30.15 in 10.0 mi NNW 11.5 mph - N/A   Scattered Clouds
4:56 PM 41.0 °F 34.7 °F 19.0 °F 41% 30.17 in 10.0 mi NW 10.4 mph - N/A   Scattered Clouds
5:56 PM 37.9 °F 32.7 °F 21.9 °F 53% 30.20 in 10.0 mi North 6.9 mph - N/A   Scattered Clouds
6:56 PM 35.1 °F 32.2 °F 21.9 °F 59% 30.22 in 10.0 mi NNW 3.5 mph - N/A   Partly Cloudy
7:56 PM 37.0 °F 31.0 °F 21.9 °F 54% 30.25 in 10.0 mi North 8.1 mph - N/A   Scattered Clouds
8:56 PM 37.9 °F 29.6 °F 21.9 °F 53% 30.26 in 10.0 mi North 13.8 mph - N/A   Mostly Cloudy
9:56 PM 37.9 °F 29.6 °F 19.0 °F 47% 30.28 in 10.0 mi North 13.8 mph - N/A   Mostly Cloudy
10:56 PM 37.0 °F 29.3 °F 21.0 °F 52% 30.29 in 10.0 mi North 11.5 mph - N/A   Overcast
11:56 PM 37.0 °F 30.4 °F 21.0 °F 52% 30.29 in 10.0 mi North 9.2 mph 18.4 mph N/A   Overcast